Location: Caltech
(34.1382°N, 118.1253°W)
Time: 09:09:10
(UTC-08:00)

Cosmos 2219 Rocket - Visible Passes

Search period start: 17 January 2017 00:00
Search period end: 27 January 2017 00:00
Orbit: 829 x 846 km, 71.0° (Epoch: 16 January)

Date Brightness Start Highest point End Pass type
(mag) Time Alt. Az. Time Alt. Az. Time Alt. Az.
17 Jan 4.2 03:52:59 21° SE 03:52:59 21° SE 03:54:50 10° SE visible
17 Jan 3.9 05:34:47 14° WSW 05:34:47 14° WSW 05:36:17 10° SW visible
17 Jan 3.4 18:30:37 10° SW 18:35:53 40° WNW 18:41:10 10° N visible
18 Jan 4.8 03:38:09 11° SE 03:38:09 11° SE 03:38:25 10° SE visible
18 Jan 4.2 05:19:57 11° SW 05:19:57 11° SW 05:20:16 10° SW visible
18 Jan 3.3 18:14:11 10° SW 18:19:32 43° WNW 18:24:53 10° N visible
19 Jan 3.2 17:57:44 10° SW 18:03:10 47° WNW 18:08:35 10° N visible
20 Jan 3.1 17:41:20 10° SW 17:46:48 52° WNW 17:52:18 10° N visible
26 Jan 4.9 17:52:10 10° WNW 17:53:27 11° NW 17:54:45 10° NW visible
